User: anonymous   Login
Location: Caribou
(46.8667°N, 68.0167°W)
Time: 09:13:13
(UTC-04:00)
Language:

SL-08 RB Rocket - Orbit

View from above orbital plane
View from above orbital plane
View from above satellite
View from above satellite

Ground track
Ground track

The orbit data is extracted from the following two-line orbital elements,

1 26387U 00033D   15143.80517777  .00000381  00000-0  74966-4 0  9996
2 26387 098.0639 212.1774 0026019 212.3068 280.8673 14.67874217797045
Epoch (UTC): 23 May 2015 19:19:27
Eccentricity: 0.0026019
inclination: 98.0639°
perigee height: 649 km
apogee height: 686 km
right ascension of ascending node: 212.1774°
argument of perigee: 212.3068°
revolutions per day: 14.67874217
mean anomaly at epoch: 280.8673°
orbit number at epoch: 79704

The dashed part of the orbit path shows where the satellite is in the earth's shadow,  

DLR